This is the latest recevied weather packets stored in our database for station/object N5PRN. If no packets are shown the sender has not sent any weather packets the latest 1 day(s).
| Time | Temp. | Humidity | Pressure | Rain* | Wind** | Luminosity | Snow |
|---|---|---|---|---|---|---|---|
| 1778013488 | 25° C | 87% | 1009.3 hPa | 0 mm | 1.34 m/s, 189° | 153 W/m² | - |
| 1778013185 | 25° C | 87% | 1009.4 hPa | 0 mm | 0.89 m/s, 202° | 141 W/m² | - |
| 1778012881 | 25° C | 87% | 1009.4 hPa | 0 mm | 0.45 m/s, 205° | 140 W/m² | - |
| 1778012576 | 25° C | 87% | 1009.6 hPa | 0 mm | 0.89 m/s, 209° | 133 W/m² | - |
| 1778012273 | 25° C | 87% | 1009.3 hPa | 0 mm | 0.89 m/s, 217° | 98 W/m² | - |
| 1778011970 | 25° C | 86% | 1009.4 hPa | 0 mm | 2.24 m/s, 173° | 88 W/m² | - |
| 1778011669 | 25° C | 86% | 1009.3 hPa | 0 mm | 0.89 m/s, 237° | 115 W/m² | - |
| 1778011360 | 25° C | 85% | 1009.2 hPa | 0 mm | 4.02 m/s, 216° | 78 W/m² | - |
| 1778011055 | 25° C | 85% | 1009.4 hPa | 0 mm | 1.34 m/s, 213° | 146 W/m² | - |
| 1778010753 | 25° C | 85% | 1009.3 hPa | 0 mm | 1.79 m/s, 183° | 206 W/m² | - |
| 1778010445 | 25° C | 85% | 1009.5 hPa | 0 mm | 0.45 m/s, 205° | 327 W/m² | - |
| 1778010141 | 25° C | 85% | 1009.6 hPa | 0 mm | 3.13 m/s, 194° | 249 W/m² | - |
| 1778009836 | 25° C | 86% | 1009.5 hPa | 0 mm | 0.45 m/s, 208° | 233 W/m² | - |
| 1778009534 | 24.44° C | 86% | 1009.6 hPa | 0 mm | 1.34 m/s, 209° | 208 W/m² | - |
| 1778009233 | 24.44° C | 87% | 1009.7 hPa | 0 mm | 0.89 m/s, 204° | 153 W/m² | - |
| 1778008929 | 24.44° C | 86% | 1009.7 hPa | 0 mm | 2.68 m/s, 225° | 155 W/m² | - |
| 1778008628 | 24.44° C | 85% | 1009.8 hPa | 0 mm | 0.89 m/s, 203° | 92 W/m² | - |
| 1778008325 | 25° C | 85% | 1009.8 hPa | 0 mm | 2.24 m/s, 154° | 86 W/m² | - |
| 1778008021 | 25° C | 85% | 1009.6 hPa | 0 mm | 2.24 m/s, 177° | 126 W/m² | - |
| 1778007721 | 25° C | 84% | 1009.8 hPa | 0 mm | 1.34 m/s, 156° | 133 W/m² | - |
| 1778007419 | 25° C | 83% | 1009.7 hPa | 0 mm | 3.13 m/s, 192° | 271 W/m² | - |
| 1778007115 | 25° C | 84% | 1009.6 hPa | 0 mm | 1.34 m/s, 166° | 376 W/m² | - |
| 1778006811 | 25.56° C | 83% | 1010 hPa | 0 mm | 0.89 m/s, 214° | 319 W/m² | - |
| 1778006509 | 25.56° C | 84% | 1009.5 hPa | 0 mm | 2.24 m/s, 213° | 419 W/m² | - |
| 1778006205 | 25° C | 84% | 1010 hPa | 0 mm | 1.79 m/s, 175° | 350 W/m² | - |
* Rain latest hour (hover to see other rain measurements)
** Current wind speed in m/s (hover to see current wind gust speed)